User: anonymous   Login
Location: New Plymouth
(39.0670°S, 174.0830°E)
Time: 17:26:48
(UTC+12:00)
Language:

METEOR M2 - Orbit

View from above orbital plane
View from above orbital plane
View from above satellite
View from above satellite

Ground track
Ground track

The orbit data is extracted from the following two-line orbital elements,

1 40069U 14037A   19233.81025939 -.00000043  00000-0 -21123-6 0  9993
2 40069  98.5465 277.0372 0006691  76.2579 283.9327 14.20663727265526
Epoch (UTC): 21 August 2019 19:26:46
Eccentricity: 0.0006691
inclination: 98.5465°
perigee height: 818 km
apogee height: 828 km
right ascension of ascending node: 277.0372°
argument of perigee: 76.2579°
revolutions per day: 14.20663727
mean anomaly at epoch: 283.9327°
orbit number at epoch: 26552

The dashed part of the orbit path shows where the satellite is in the earth's shadow,  

DLR